Acazulco, Mexico

8:35 AM CST on February 23, 2017 (GMT -0600)
Lic Adolfo Lopez Mateos International

Weather History for MMTO - January, 2013

Change the Weather History Date:

Saturday, January 5, 2013

  Actual Average Record
Temperature  
Mean Temperature 50 °F -  
Max Temperature 68 °F 66 °F 73 °F (2005)
Min Temperature 33 °F 30 °F 26 °F (1998)
Degree Days  
Heating Degree Days 14    
Moisture  
Dew Point 39 °F    
Average Humidity 72    
Maximum Humidity 93    
Minimum Humidity 30    
Precipitation  
Precipitation 0.00 in - - ()
Sea Level Pressure  
Sea Level Pressure 30.30 in    
Wind  
Wind Speed 2 mph ()    
Max Wind Speed 9 mph    
Max Gust Speed -    
Visibility 5.0 miles    
Events Fog , Rain , Thunderstorm    
Averages and records for this station are not official NWS values.
T = Trace of Precipitation, MM = Missing Value Source: Averaged Metar Reports

Daily Weather History Graph

Daily Weather History Graph

Search for Another Location

Airport or City:

Trip Planner

Search our weather history database for the weather conditions in past years. The results will help you decide how hot, cold, wet, or windy it might be!

Date:

Astronomy

Jan. 05, 2013 Rise Set
Actual Time 7:13 AM CST 6:14 PM CST
Civil Twilight 6:49 AM CST 6:38 PM CST
Nautical Twilight 6:22 AM CST 7:05 PM CST
Astronomical Twilight 5:55 AM CST 7:32 PM CST
Moon 12:48 AM CST (1/5) 12:42 PM CST (1/5)
Length of Visible Light 11h 48m
Length of Day
11h 00m
Last Quarter, 44% of the Moon is Illuminated
Jan 5
Last Quarter
Jan 11
New
Jan 18
First Quarter
Jan 26
Full
Feb 3
Last Quarter

Hourly Weather History & Observations

Time (CST) Temp. Windchill Dew Point Humidity Pressure Visibility Wind Dir Wind Speed Gust Speed Precip Events Conditions
12:45 AM 42.8 °F 41.1 °F 39.2 °F 87% 30.42 in 7.0 mi SSE 3.5 mph - N/A   Partly Cloudy
1:45 AM 41.0 °F - 37.4 °F 87% 30.41 in 7.0 mi Calm Calm - N/A   Partly Cloudy
2:45 AM 39.2 °F - 35.6 °F 87% 30.01 in 7.0 mi Calm Calm - N/A   Partly Cloudy
3:45 AM 39.2 °F - 35.6 °F 87% 30.41 in 7.0 mi Calm Calm - N/A   Partly Cloudy
4:45 AM 37.4 °F - 35.6 °F 93% 30.41 in 5.0 mi Calm Calm - N/A   Partly Cloudy
5:45 AM 35.6 °F - 33.8 °F 93% 30.03 in 0.5 mi Calm Calm - N/A Fog Fog
6:45 AM 33.8 °F 30.8 °F 30.2 °F 87% 30.42 in 0.5 mi ENE 3.5 mph - N/A Fog Fog
7:45 AM 33.8 °F - 32.0 °F 93% 30.46 in 0.5 mi Calm Calm - N/A Fog Fog
8:30 AM 39.2 °F - 37.4 °F 93% 30.47 in 1.0 mi Calm Calm - N/A Fog Fog
8:45 AM 41.0 °F - 39.2 °F 93% 30.48 in 1.0 mi Calm Calm - N/A Fog Fog
9:45 AM 51.8 °F - 39.2 °F 62% 30.49 in 2.0 mi Calm Calm - N/A   Mostly Cloudy
10:45 AM 57.2 °F - 42.8 °F 59% 30.47 in 3.0 mi West 3.5 mph - N/A   Haze
11:45 AM 62.6 °F - 41.0 °F 45% 29.98 in 6.0 mi West 6.9 mph - N/A   Mostly Cloudy
12:45 PM 66.2 °F - 35.6 °F 32% 30.41 in 6.0 mi NNW 6.9 mph - N/A   Mostly Cloudy
1:45 PM 68.0 °F - 35.6 °F 30% 30.37 in 6.0 mi WSW 6.9 mph - N/A   Mostly Cloudy
2:45 PM 66.2 °F - 39.2 °F 37% 29.87 in 6.0 mi West 5.8 mph - N/A   Mostly Cloudy
3:45 PM 62.6 °F - 37.4 °F 39% 30.33 in 6.0 mi NW 4.6 mph - N/A   Mostly Cloudy
3:55 PM 62.6 °F - 37.4 °F 39% 30.33 in 6.0 mi Calm Calm - N/A Rain , Thunderstorm Light Thunderstorms and Rain
4:45 PM 55.4 °F - 46.4 °F 72% 30.36 in 6.0 mi NNE 9.2 mph - N/A Thunderstorm Thunderstorm
5:45 PM 55.4 °F - 44.6 °F 67% 30.01 in 7.0 mi SE 4.6 mph - N/A   Mostly Cloudy
6:45 PM 53.6 °F - 44.6 °F 72% 30.38 in 7.0 mi Calm Calm - N/A   Mostly Cloudy
7:45 PM 50.0 °F - 44.6 °F 82% 30.40 in 7.0 mi Calm Calm - N/A   Mostly Cloudy
8:45 PM 50.0 °F - 42.8 °F 76% 30.07 in 7.0 mi Calm Calm - N/A   Mostly Cloudy
9:45 PM 46.4 °F - 42.8 °F 87% 30.44 in 6.0 mi Calm Calm - N/A   Scattered Clouds
10:45 PM 44.6 °F - 41.0 °F 87% 30.43 in 6.0 mi Calm Calm - N/A   Scattered Clouds
11:45 PM 44.6 °F - 41.0 °F 87% 29.96 in 6.0 mi Calm Calm - N/A   Scattered Clouds